IRIDIUM 66 [-]

Last updated on Aug. 17, 2018, 12:20 a.m. UTC

1 25289U 98021E   18228.80792927  .02861634 -16438-5  10092-2 0  9993
2 25289  86.3943  44.8343 0261872 134.8811 227.4061 15.78723287 66182

Satellite is not in orbit.